Change the Weather History Date:

Sunday, September 16, 2012

  Actual Average Record
Temperature  
Mean Temperature 65 °F -  
Max Temperature 79 °F 73 °F 97 °F (1955)
Min Temperature 51 °F 50 °F 35 °F (1993)
Growing Degree Days 15 (Base 50)    
Moisture  
Dew Point 56 °F    
Average Humidity 82    
Maximum Humidity 100    
Minimum Humidity 42    
Precipitation  
Precipitation 0.00 in - - ()
Sea Level Pressure  
Sea Level Pressure 29.99 in    
Wind  
Wind Speed 7 mph (South)    
Max Wind Speed 14 mph    
Max Gust Speed 20 mph    
Visibility 6 miles    
Events Fog    
Averages and records for this station are not official NWS values.
T = Trace of Precipitation, MM = Missing Value Source: NWS Daily Summary

Daily Weather History Graph

Daily Weather History Graph

Search for Another Location

Airport or City:

Trip Planner

Search our weather history database for the weather conditions in past years. The results will help you decide how hot, cold, wet, or windy it might be!

Date:

Astronomy

Sep. 16, 2012 Rise Set
Actual Time 7:06 AM CDT 7:31 PM CDT
Civil Twilight 6:38 AM CDT 7:59 PM CDT
Nautical Twilight 6:05 AM CDT 8:32 PM CDT
Astronomical Twilight 5:31 AM CDT 9:05 PM CDT
Moon 7:48 AM CDT (9/16) 7:35 PM CDT (9/16)
Length of Visible Light 13h 20m
Length of Day
12h 25m
New Moon, 0% of the Moon is Illuminated
Sep 16
New Moon
Sep 22
First Quarter
Sep 29
Full
Oct 8
Last Quarter
Oct 15
New

Hourly Weather History & Observations

Time (CDT) Temp. Dew Point Humidity Pressure Visibility Wind Dir Wind Speed Gust Speed Precip Events Conditions
12:54 AM 57.9 °F 55.0 °F 90% 30.03 in 5.0 mi South 5.8 mph - N/A   Clear
1:54 AM 59.0 °F 55.9 °F 90% 30.03 in 5.0 mi SSE 6.9 mph - N/A   Clear
2:54 AM 57.0 °F 55.0 °F 93% 30.02 in 3.0 mi SSE 6.9 mph - N/A   Clear
3:29 AM 53.6 °F 53.6 °F 100% 30.05 in 2.5 mi South 4.6 mph - N/A   Clear
3:46 AM 53.6 °F 51.8 °F 94% 30.04 in 1.0 mi SSE 4.6 mph - N/A   Clear
3:54 AM 54.0 °F 52.0 °F 93% 30.02 in 0.2 mi SSE 3.5 mph - N/A Fog Fog
4:04 AM 53.6 °F 51.8 °F 94% 30.04 in 0.2 mi SE 4.6 mph - N/A Fog Fog
4:54 AM 53.1 °F 52.0 °F 96% 30.01 in 1.0 mi SSE 5.8 mph - N/A   Mist
5:09 AM 51.8 °F 51.8 °F 100% 30.03 in 0.5 mi SSE 4.6 mph - N/A Fog Fog
5:54 AM 52.0 °F 51.1 °F 97% 30.01 in 0.2 mi SSE 6.9 mph - N/A Fog Fog
6:54 AM 54.0 °F 52.0 °F 93% 30.01 in 0.2 mi South 3.5 mph - N/A Fog Fog
7:54 AM 60.1 °F 57.9 °F 93% 30.02 in 0.5 mi SSW 6.9 mph - N/A Fog Fog
8:34 AM 60.8 °F 59.0 °F 94% 30.03 in 0.8 mi SW 8.1 mph - N/A   Overcast
8:45 AM 60.8 °F 59.0 °F 94% 30.04 in 1.0 mi SW 8.1 mph - N/A   Overcast
8:54 AM 60.1 °F 59.0 °F 96% 30.03 in 1.8 mi SW 9.2 mph - N/A   Overcast
9:01 AM 60.8 °F 59.0 °F 94% 30.04 in 2.5 mi SW 8.1 mph - N/A   Overcast
9:22 AM 60.8 °F 59.0 °F 94% 30.05 in 3.0 mi SW 6.9 mph - N/A   Overcast
9:54 AM 62.1 °F 59.0 °F 90% 30.03 in 5.0 mi SW 6.9 mph - N/A   Overcast
10:34 AM 62.6 °F 59.0 °F 88% 30.04 in 9.0 mi SSW 9.2 mph - N/A   Overcast
10:54 AM 64.0 °F 59.0 °F 84% 30.02 in 10.0 mi SSW 8.1 mph - N/A   Overcast
11:54 AM 66.0 °F 57.9 °F 75% 30.01 in 10.0 mi South 10.4 mph - N/A   Overcast
12:52 PM 69.8 °F 59.0 °F 68% 30.01 in 10.0 mi South 10.4 mph 18.4 mph N/A   Mostly Cloudy
12:54 PM 69.1 °F 59.0 °F 70% 29.99 in 10.0 mi South 9.2 mph 18.4 mph N/A   Mostly Cloudy
1:47 PM 73.4 °F 59.0 °F 61% 29.99 in 10.0 mi South 10.4 mph - N/A   Scattered Clouds
1:54 PM 73.0 °F 59.0 °F 61% 29.96 in 10.0 mi South 12.7 mph 18.4 mph N/A   Partly Cloudy
2:54 PM 75.0 °F 59.0 °F 57% 29.94 in 10.0 mi SSE 13.8 mph 19.6 mph N/A   Clear
3:54 PM 78.1 °F 57.9 °F 50% 29.91 in 10.0 mi South 11.5 mph - N/A   Clear
4:54 PM 78.1 °F 54.0 °F 43% 29.88 in 10.0 mi SSW 12.7 mph - N/A   Clear
5:54 PM 79.0 °F 54.0 °F 42% 29.87 in 10.0 mi SSW 11.5 mph - N/A   Clear
6:54 PM 73.9 °F 59.0 °F 59% 29.87 in 10.0 mi SE 8.1 mph - N/A   Clear
7:54 PM 66.9 °F 57.9 °F 73% 29.88 in 10.0 mi SE 8.1 mph - N/A   Clear
8:54 PM 61.0 °F 55.9 °F 83% 29.89 in 10.0 mi Calm Calm - N/A   Clear
9:54 PM 60.1 °F 55.9 °F 86% 29.91 in 10.0 mi South 4.6 mph - N/A   Clear
10:54 PM 57.9 °F 55.0 °F 90% 29.92 in 10.0 mi SE 4.6 mph - N/A   Clear
11:54 PM 57.9 °F 55.0 °F 90% 29.91 in 10.0 mi SE 5.8 mph - N/A   Clear